Location: Gollag?dem
(17.0207°N, 80.7261°E)
Time: 07:12:11
(UTC+00:00)

Aurora 2 Rocket - Pass Details

Date: 03 August 2024
Orbit: 386 x 1617 km, 25.0° (Epoch: 10 September)

Event Time Altitude Azimuth Distance (km) Brightness Sun altitude
Exits shadow 23:11:29 23° 222° (SW) 1,379 3.8 -15.6°
Maximum altitude 23:14:03 47° 160° (SSE) 775 3.0 -15.1°
Drops below altitude 10° 23:17:41 10° 85° (E) 1,669 6.0 -14.3°
Sets 23:19:39 0° 78° (ENE) 2,441 7.4 -13.9°
